Gwinn, MI

2:41 PM EST on February 25, 2018 (GMT -0500)
Sawyer International

Weather History for KSAW - March, 2013

Change the Weather History Date:

Tuesday, March 19, 2013

  Actual Average (KESC) Record (KESC)
Temperature  
Mean Temperature 22 °F -  
Max Temperature 27 °F 36 °F 57 °F (2012)
Min Temperature 18 °F 18 °F -15 °F (1989)
Degree Days  
Heating Degree Days 42    
Moisture  
Dew Point 18 °F    
Average Humidity 82    
Maximum Humidity 96    
Minimum Humidity 64    
Precipitation  
Precipitation 0.00 in - - ()
Sea Level Pressure  
Sea Level Pressure 29.51 in    
Wind  
Wind Speed 9 mph (WNW)    
Max Wind Speed 26 mph    
Max Gust Speed 43 mph    
Visibility 5 miles    
Events Snow    
Averages and records for this station are not official NWS values.
T = Trace of Precipitation, MM = Missing Value Source: NWS Daily Summary

Daily Weather History Graph

Daily Weather History Graph

Search for Another Location

Airport or City:

Trip Planner

Search our weather history database for the weather conditions in past years. The results will help you decide how hot, cold, wet, or windy it might be!

Date:

Astronomy

Mar. 19, 2013 Rise Set
Actual Time 7:54 AM EDT 8:01 PM EDT
Civil Twilight 7:24 AM EDT 8:31 PM EDT
Nautical Twilight 6:48 AM EDT 9:06 PM EDT
Astronomical Twilight 6:12 AM EDT 9:42 PM EDT
Moon 12:25 PM EDT (3/19) 3:06 AM EDT (3/19)
Length of Visible Light 13h 07m
Length of Day
12h 07m
Waxing Crescent, 49% of the Moon is Illuminated
Mar 19
Waxing Crescent
Mar 19
First Quarter
Mar 27
Full
Apr 3
Last Quarter
Apr 10
New

Hourly Weather History & Observations

Time (EDT) Temp. Windchill Dew Point Humidity Pressure Visibility Wind Dir Wind Speed Gust Speed Precip Events Conditions
12:16 AM 27.1 °F - 25.7 °F 94% 29.40 in 3.0 mi Calm Calm - N/A Snow Light Snow
12:37 AM 26.6 °F 22.6 °F 25.7 °F 96% 29.39 in 3.0 mi WSW 3.5 mph - N/A Snow Light Snow
12:57 AM 27.1 °F 19.7 °F 25.3 °F 93% 29.39 in 1.8 mi West 6.9 mph - N/A Snow Light Snow
1:16 AM 26.6 °F 22.6 °F 24.8 °F 93% 29.38 in 1.8 mi West 3.5 mph - N/A Snow Light Snow
1:37 AM 26.6 °F - 24.8 °F 93% 29.38 in 1.8 mi Calm Calm - N/A Snow Light Snow
1:56 AM 26.4 °F - 24.8 °F 94% 29.37 in 1.8 mi Calm Calm - N/A Snow Light Snow
2:17 AM 26.2 °F 19.6 °F 24.6 °F 94% 29.37 in 1.2 mi West 5.8 mph - N/A Snow Light Snow
2:37 AM 26.1 °F 20.5 °F 24.4 °F 94% 29.37 in 1.2 mi West 4.6 mph - N/A Snow Light Snow
2:56 AM 26.1 °F 20.5 °F 24.4 °F 94% 29.37 in 1.2 mi West 4.6 mph - N/A Snow Snow
3:17 AM 26.1 °F 20.5 °F 24.3 °F 93% 29.37 in 1.5 mi West 4.6 mph - N/A Snow Light Snow
3:37 AM 26.6 °F 19.1 °F 24.8 °F 93% 29.37 in 2.0 mi West 6.9 mph - N/A Snow Light Snow
3:56 AM 25.2 °F 13.3 °F 21.9 °F 87% 29.37 in 7.0 mi WNW 13.8 mph - N/A Snow Light Snow
4:17 AM 23.9 °F 13.5 °F 20.8 °F 88% 29.37 in 2.0 mi WNW 10.4 mph 19.6 mph N/A Snow Light Snow
4:37 AM 23.0 °F 10.6 °F 19.6 °F 87% 29.38 in 2.0 mi West 13.8 mph 18.4 mph N/A Snow Light Snow
4:56 AM 21.4 °F 10.4 °F 18.0 °F 87% 29.38 in 3.0 mi West 10.4 mph 19.6 mph N/A Snow Light Snow
5:17 AM 20.8 °F 10.4 °F 17.2 °F 86% 29.38 in 4.0 mi West 9.2 mph 18.4 mph N/A Snow Light Snow
5:37 AM 20.7 °F 8.8 °F 17.1 °F 86% 29.38 in 5.0 mi West 11.5 mph - N/A Snow Light Snow
5:56 AM 20.5 °F 8.6 °F 17.1 °F 87% 29.38 in 4.0 mi West 11.5 mph - N/A Snow Light Snow
6:50 AM 19.4 °F 7.2 °F 15.8 °F 86% 29.38 in 5.0 mi West 11.5 mph - N/A Snow Light Snow
7:55 AM 21.2 °F 8.3 °F 17.6 °F 86% 29.40 in 2.0 mi West 13.8 mph - N/A Snow Light Snow
8:50 AM 21.2 °F 9.5 °F 17.6 °F 86% 29.41 in 4.0 mi West 11.5 mph - N/A Snow Light Snow
9:50 AM 23.0 °F 9.6 °F 17.6 °F 80% 29.42 in 4.0 mi WNW 16.1 mph 23.0 mph N/A Snow Light Snow
10:55 AM 23.0 °F 7.6 °F 17.6 °F 80% 29.44 in 5.0 mi WNW 21.9 mph 31.1 mph N/A Snow Light Snow
11:55 AM 24.8 °F 9.0 °F 17.6 °F 74% 29.47 in 5.0 mi West 25.3 mph 34.5 mph N/A Snow Light Snow
12:50 PM 24.8 °F 8.7 °F 15.8 °F 69% 29.49 in 5.0 mi WNW 26.5 mph 42.6 mph N/A Snow Blowing Snow
1:50 PM 24.8 °F 8.7 °F 15.8 °F 69% 29.52 in 7.0 mi WNW 26.5 mph 38.0 mph N/A   Overcast
2:55 PM 24.8 °F 10.0 °F 15.8 °F 69% 29.57 in 7.0 mi WNW 21.9 mph 38.0 mph N/A   Mostly Cloudy
3:50 PM 24.8 °F 9.6 °F 15.8 °F 69% 29.60 in 7.0 mi West 23.0 mph 34.5 mph N/A   Overcast
4:55 PM 24.8 °F 9.6 °F 14.0 °F 64% 29.64 in 10.0 mi West 23.0 mph 36.8 mph N/A   Overcast
5:50 PM 24.8 °F 11.9 °F 14.0 °F 64% 29.67 in 10.0 mi WNW 16.1 mph 27.6 mph N/A   Overcast
6:50 PM 23.0 °F 8.0 °F 14.0 °F 68% 29.70 in 10.0 mi WNW 20.7 mph 28.8 mph N/A   Overcast
7:50 PM 23.0 °F 11.1 °F 14.0 °F 68% 29.73 in 5.0 mi WNW 12.7 mph 20.7 mph N/A Snow Light Snow
8:50 PM 21.2 °F 8.9 °F 12.2 °F 68% 29.75 in 10.0 mi WNW 12.7 mph 20.7 mph N/A   Overcast
9:55 PM 19.4 °F 7.9 °F 14.0 °F 80% 29.76 in 10.0 mi WNW 10.4 mph - N/A Snow Light Snow
10:17 PM 19.8 °F 5.9 °F 13.1 °F 75% 29.76 in 10.0 mi WNW 15.0 mph 20.7 mph N/A   Mostly Cloudy
10:37 PM 19.4 °F 6.6 °F 12.9 °F 76% 29.76 in 10.0 mi West 12.7 mph 16.1 mph N/A   Mostly Cloudy
10:56 PM 19.0 °F 6.1 °F 12.7 °F 76% 29.76 in 10.0 mi West 12.7 mph 19.6 mph N/A   Mostly Cloudy
11:17 PM 18.9 °F 7.2 °F 12.9 °F 78% 29.77 in 10.0 mi WNW 10.4 mph - N/A Snow Light Snow
11:36 PM 18.7 °F 8.6 °F 13.5 °F 80% 29.76 in 4.0 mi West 8.1 mph - N/A Snow Light Snow
11:57 PM 18.1 °F 7.1 °F 12.9 °F 80% 29.76 in 10.0 mi West 9.2 mph - N/A   Mostly Cloudy